This is the latest recevied weather packets stored in our database for station/object KJ6APE. If no packets are shown the sender has not sent any weather packets the latest 10 day(s).
| Time | Temp. | Humidity | Pressure | Rain* | Wind** | Luminosity | Snow |
|---|---|---|---|---|---|---|---|
| 1777438601 | 14.44° C | 67% | 1019.3 hPa | 0 mm | - | 0 W/m² | - |
| 1777438297 | 15° C | 67% | 1019.3 hPa | 0 mm | - | 0 W/m² | - |
| 1777437991 | 15° C | 69% | 1019.4 hPa | 0 mm | - | 0 W/m² | - |
| 1777437689 | 15° C | 69% | 1019.4 hPa | 0 mm | - | 0 W/m² | - |
| 1777437386 | 15° C | 68% | 1019.5 hPa | 0 mm | - | 0 W/m² | - |
| 1777437082 | 15° C | 68% | 1019.2 hPa | 0 mm | - | 0 W/m² | - |
| 1777436778 | 15° C | 68% | 1019.3 hPa | 0 mm | - | 0 W/m² | - |
| 1777436474 | 15° C | 67% | 1019.4 hPa | 0 mm | - | 0 W/m² | - |
| 1777436172 | 15° C | 64% | 1019.1 hPa | 0 mm | - | 0 W/m² | - |
| 1777435868 | 15° C | 63% | 1019.2 hPa | 0 mm | - | 0 W/m² | - |
| 1777435563 | 15.56° C | 63% | 1019.1 hPa | 0 mm | - | 0 W/m² | - |
| 1777435260 | 16.11° C | 61% | 1019.1 hPa | 0 mm | - | 0 W/m² | - |
| 1777434959 | 16.11° C | 57% | 1019.1 hPa | 0 mm | - | 0 W/m² | - |
| 1777434655 | 16.67° C | 56% | 1018.6 hPa | 0 mm | - | 0 W/m² | - |
| 1777434350 | 16.67° C | 56% | 1018.8 hPa | 0 mm | - | 0 W/m² | - |
| 1777434048 | 16.67° C | 55% | 1018.7 hPa | 0 mm | - | 0 W/m² | - |
| 1777433744 | 16.67° C | 54% | 1018.6 hPa | 0 mm | - | 0 W/m² | - |
| 1777433441 | 17.22° C | 54% | 1018.7 hPa | 0 mm | - | 0 W/m² | - |
| 1777433141 | 17.22° C | 53% | 1018.3 hPa | 0 mm | - | 0 W/m² | - |
| 1777432838 | 17.78° C | 52% | 1018.4 hPa | 0 mm | - | 0 W/m² | - |
| 1777432533 | 17.78° C | 52% | 1018.2 hPa | 0 mm | - | 0 W/m² | - |
| 1777432230 | 18.33° C | 52% | 1018.4 hPa | 0 mm | - | 1 W/m² | - |
| 1777431928 | 18.33° C | 50% | 1018.4 hPa | 0 mm | - | 1 W/m² | - |
| 1777431626 | 18.89° C | 50% | 1018.3 hPa | 0 mm | - | 3 W/m² | - |
| 1777431321 | 19.44° C | 49% | 1018.1 hPa | 0 mm | - | 6 W/m² | - |
* Rain latest hour (hover to see other rain measurements)
** Current wind speed in m/s (hover to see current wind gust speed)